Location: *
(44.1392°N, 4.8079°E)
Time: 07:39:50
(UTC+00:00)

Meteor 1-28 Rocket - Pass Details

Date: 21 June 2021
Orbit: 502 x 523 km, 97.4° (Epoch: 31 July)

Event Time Altitude Azimuth Distance (km) Brightness Sun altitude
Exits shadow 02:29:44 14° 183° (S) 1,515 5.1 -12.4°
Maximum altitude 02:32:52 55° 260° (W) 633 3.3 -12.0°
Drops below altitude 10° 02:36:38 10° 339° (NNW) 1,771 6.3 -11.6°
Sets 02:38:47 0° 344° (NNW) 2,665 7.3 -11.3°
